Location: Iroquois Falls
(48.7680°N, 80.6732°W)
Time: 01:50:16
(UTC-05:00)

ARIANE 6 FM1 Upper Stage - Visible Passes

Search period start: 16 November 2025 00:00
Search period end: 26 November 2025 00:00
Orbit: 522 x 612 km, 62.0° (Epoch: 15 November)

Date Brightness Start Highest point End Pass type
(mag) Time Alt. Az. Time Alt. Az. Time Alt. Az.
16 Nov 4.7 17:40:45 10° WNW 17:43:30 18° NNW 17:46:14 10° NNE visible
16 Nov 5.2 19:22:19 10° NNW 19:22:57 11° NNW 19:22:57 11° NNW visible
17 Nov 4.8 17:41:57 10° NW 17:44:22 15° NNW 17:46:47 10° NNE visible
17 Nov 5.3 19:23:05 10° NNW 19:23:31 11° NNW 19:23:31 11° NNW visible
18 Nov 4.9 17:43:07 10° NW 17:45:14 14° NNW 17:47:22 10° NNE visible
18 Nov 5.3 19:23:44 10° NNW 19:24:06 11° NNW 19:24:06 11° NNW visible
19 Nov 4.9 17:44:16 10° NW 17:46:08 13° N 17:48:00 10° NNE visible
19 Nov 5.3 19:24:19 10° NNW 19:24:39 11° NNW 19:24:39 11° NNW visible
20 Nov 4.8 17:45:19 10° NNW 17:47:02 12° N 17:48:44 10° NNE visible
20 Nov 5.3 19:24:51 10° NNW 19:25:14 11° NNW 19:25:14 11° NNW visible
21 Nov 4.8 17:46:15 10° NNW 17:47:54 12° N 17:49:34 10° NNE visible
21 Nov 5.2 19:25:20 10° NNW 19:25:48 12° NNW 19:25:48 12° NNW visible
22 Nov 4.7 17:47:01 10° NNW 17:48:47 13° N 17:50:21 10° NNE visible
22 Nov 5.2 19:25:49 10° NNW 19:26:24 13° NNW 19:26:24 13° NNW visible
23 Nov 4.6 17:47:40 10° NNW 17:49:38 13° N 17:50:58 12° NNE visible
23 Nov 5.1 19:26:18 10° NNW 19:27:00 14° NNW 19:27:00 14° NNW visible
24 Nov 4.5 17:48:13 10° NNW 17:50:28 14° NNE 17:51:37 13° NNE visible
24 Nov 5.0 19:26:46 10° NNW 19:27:39 16° NNW 19:27:39 16° NNW visible
25 Nov 4.3 17:48:43 10° NNW 17:51:16 16° NNE 17:52:18 15° NE visible
25 Nov 4.9 19:27:15 10° NW 19:28:20 17° NNW 19:28:20 17° NNW visible
